• In Belarus
  • List of Countries
  • For 7 days
  • Water Temperature
  • Satellite Maps
  • Weather Map
  • Weather Widgets
  • user-avatar
    Login

    Hourly Weather Santiago de Querétaro

    Today, 16 February, Saturday

    Time Temperature Precipitation Wind Pressure Humidity
    00:00 +19°C° 0 mm 1 mps 606 mmHg 48%
    01:00 +18°C° 0 mm 1 mps 606 mmHg 51%
    02:00 +16°C° 0 mm 1 mps 606 mmHg 55%
    03:00 +16°C° 0 mm 1 mps 605 mmHg 58%
    04:00 +16°C° 0 mm 1 mps 605 mmHg 61%
    05:00 +15°C° 0 mm 1 mps 605 mmHg 64%
    06:00 +18°C° 0 mm 1 mps 606 mmHg 58%
    07:00 +18°C° 0 mm 2 mps 607 mmHg 53%
    08:00 +20°C° 0 mm 2 mps 607 mmHg 47%
    09:00 +23°C° 0 mm 2 mps 608 mmHg 40%
    10:00 +26°C° 0 mm 3 mps 608 mmHg 33%
    11:00 +28°C° 0 mm 3 mps 609 mmHg 25%
    12:00 +30°C° 0 mm 4 mps 609 mmHg 23%
    13:00 +32°C° 0 mm 4 mps 608 mmHg 20%
    14:00 +33°C° 0 mm 4 mps 608 mmHg 17%
    15:00 +33°C° 0 mm 4 mps 607 mmHg 18%
    16:00 +32°C° 0 mm 4 mps 607 mmHg 19%
    17:00 +30°C° 0 mm 5 mps 607 mmHg 20%
    18:00 +28°C° 0 mm 4 mps 607 mmHg 25%
    19:00 +25°C° 0 mm 3 mps 606 mmHg 30%
    20:00 +22°C° 0 mm 3 mps 606 mmHg 35%
    21:00 +21°C° 0 mm 3 mps 606 mmHg 38%
    22:00 +20°C° 0 mm 2 mps 606 mmHg 41%
    23:00 +19°C° 0 mm 2 mps 606 mmHg 44%

    Tomorrow, 17 February, Sunday

    Time Temperature Precipitation Wind Pressure Humidity
    00:00 +18°C° 0 mm 2 mps 605 mmHg 45%
    01:00 +18°C° 0 mm 2 mps 605 mmHg 46%
    02:00 +17°C° 0 mm 2 mps 605 mmHg 47%
    03:00 +16°C° 0 mm 2 mps 605 mmHg 49%
    04:00 +16°C° 0 mm 2 mps 605 mmHg 50%
    05:00 +15°C° 0 mm 2 mps 605 mmHg 52%
    06:00 +17°C° 0 mm 2 mps 606 mmHg 47%
    07:00 +18°C° 0 mm 2 mps 606 mmHg 43%
    08:00 +20°C° 0 mm 3 mps 607 mmHg 38%
    09:00 +24°C° 0 mm 3 mps 608 mmHg 32%
    10:00 +26°C° 0 mm 4 mps 609 mmHg 26%
    11:00 +29°C° 0 mm 5 mps 610 mmHg 20%
    12:00 +30°C° 0 mm 5 mps 609 mmHg 18%
    13:00 +32°C° 0 mm 5 mps 609 mmHg 16%
    14:00 +33°C° 0 mm 5 mps 608 mmHg 14%
    15:00 +32°C° 0 mm 5 mps 608 mmHg 15%
    16:00 +30°C° 0 mm 5 mps 608 mmHg 16%
    17:00 +30°C° 0 mm 4 mps 608 mmHg 17%
    18:00 +27°C° 0 mm 4 mps 608 mmHg 21%
    19:00 +25°C° 0 mm 3 mps 607 mmHg 25%
    20:00 +21°C° 0 mm 3 mps 607 mmHg 29%
    21:00 +20°C° 0 mm 2 mps 607 mmHg 32%
    22:00 +19°C° 0 mm 2 mps 607 mmHg 34%
    23:00 +19°C° 0 mm 1 mps 607 mmHg 37%

    Day after tomorrow, 18 February, Monday

    Time Temperature Precipitation Wind Pressure Humidity
    00:00 +18°C° 0 mm 1 mps 607 mmHg 38%
    01:00 +18°C° 0 mm 1 mps 606 mmHg 40%
    02:00 +16°C° 0 mm 1 mps 606 mmHg 41%
    03:00 +16°C° 0 mm 1 mps 606 mmHg 43%
    04:00 +15°C° 0 mm 1 mps 606 mmHg 45%
    05:00 +15°C° 0 mm 1 mps 605 mmHg 47%
    06:00 +16°C° 0 mm 1 mps 606 mmHg 42%
    07:00 +19°C° 0 mm 1 mps 607 mmHg 38%
    08:00 +20°C° 0 mm 1 mps 608 mmHg 33%
    09:00 +23°C° 0 mm 2 mps 609 mmHg 28%
    10:00 +25°C° 0 mm 2 mps 610 mmHg 22%
    11:00 +28°C° 0 mm 3 mps 610 mmHg 17%
    12:00 +29°C° 0 mm 4 mps 610 mmHg 14%
    13:00 +30°C° 0 mm 5 mps 609 mmHg 12%
    14:00 +32°C° 0 mm 5 mps 609 mmHg 9%
    15:00 +30°C° 0 mm 6 mps 609 mmHg 10%
    16:00 +29°C° 0 mm 6 mps 608 mmHg 10%
    17:00 +28°C° 0 mm 6 mps 608 mmHg 11%
    18:00 +26°C° 0 mm 5 mps 607 mmHg 15%
    19:00 +22°C° 0 mm 4 mps 607 mmHg 19%
    20:00 +19°C° 0 mm 3 mps 607 mmHg 24%
    21:00 +18°C° 0 mm 3 mps 607 mmHg 26%
    22:00 +17°C° 0 mm 2 mps 606 mmHg 28%
    23:00 +16°C° 0 mm 1 mps 606 mmHg 30%

    19 February, Tuesday

    Time Temperature Precipitation Wind Pressure Humidity
    00:00 +15°C° 0 mm 1 mps 606 mmHg 31%
    01:00 +14°C° 0 mm 1 mps 605 mmHg 33%
    02:00 +14°C° 0 mm 1 mps 604 mmHg 34%
    03:00 +13°C° 0 mm 1 mps 604 mmHg 36%
    04:00 +13°C° 0 mm 1 mps 604 mmHg 38%
    05:00 +12°C° 0 mm 1 mps 604 mmHg 40%
    06:00 +14°C° 0 mm 1 mps 605 mmHg 36%
    07:00 +16°C° 0 mm 1 mps 606 mmHg 32%
    08:00 +17°C° 0 mm 2 mps 607 mmHg 27%
    09:00 +20°C° 0 mm 3 mps 608 mmHg 22%
    10:00 +23°C° 0 mm 5 mps 608 mmHg 17%
    11:00 +27°C° 0 mm 6 mps 609 mmHg 12%
    12:00 +28°C° 0 mm 7 mps 608 mmHg 12%
    13:00 +29°C° 0 mm 8 mps 608 mmHg 11%
    14:00 +29°C° 0 mm 8 mps 607 mmHg 11%
    15:00 +28°C° 0 mm 8 mps 607 mmHg 12%
    16:00 +27°C° 0 mm 8 mps 606 mmHg 14%
    17:00 +26°C° 0 mm 8 mps 606 mmHg 15%
    18:00 +22°C° 0 mm 6 mps 606 mmHg 20%
    19:00 +20°C° 0 mm 5 mps 605 mmHg 25%
    20:00 +17°C° 0 mm 3 mps 605 mmHg 30%
    21:00 +16°C° 0 mm 3 mps 605 mmHg 32%
    22:00 +15°C° 0 mm 2 mps 605 mmHg 35%
    23:00 +14°C° 0 mm 2 mps 604 mmHg 37%

    20 February, Wednesday

    Time Temperature Precipitation Wind Pressure Humidity
    00:00 +14°C° 0 mm 2 mps 604 mmHg 39%
    01:00 +13°C° 0 mm 2 mps 603 mmHg 42%
    02:00 +12°C° 0 mm 2 mps 603 mmHg 44%
    03:00 +12°C° 0 mm 2 mps 603 mmHg 45%
    04:00 +11°C° 0 mm 1 mps 602 mmHg 47%
    05:00 +11°C° 0 mm 1 mps 602 mmHg 48%
    06:00 +12°C° 0 mm 2 mps 603 mmHg 42%
    07:00 +14°C° 0 mm 2 mps 604 mmHg 35%
    08:00 +16°C° 0 mm 2 mps 605 mmHg 29%
    09:00 +19°C° 0 mm 4 mps 606 mmHg 22%
    10:00 +22°C° 0 mm 5 mps 607 mmHg 15%
    11:00 +26°C° 0 mm 7 mps 608 mmHg 8%
    12:00 +27°C° 0 mm 7 mps 607 mmHg 8%
    13:00 +28°C° 0 mm 8 mps 606 mmHg 8%
    14:00 +28°C° 0 mm 8 mps 606 mmHg 8%
    15:00 +27°C° 0 mm 8 mps 605 mmHg 9%
    16:00 +26°C° 0 mm 7 mps 605 mmHg 11%
    17:00 +24°C° 0 mm 7 mps 605 mmHg 13%
    18:00 +21°C° 0 mm 5 mps 604 mmHg 17%
    19:00 +19°C° 0 mm 4 mps 604 mmHg 21%
    20:00 +16°C° 0 mm 3 mps 604 mmHg 25%
    21:00 +16°C° 0 mm 2 mps 604 mmHg 27%
    22:00 +15°C° 0 mm 2 mps 604 mmHg 28%
    23:00 +14°C° 0 mm 2 mps 603 mmHg 30%

    21 February, Thursday

    Time Temperature Precipitation Wind Pressure Humidity
    00:00 +13°C° 0 mm 2 mps 603 mmHg 31%
    01:00 +13°C° 0 mm 1 mps 603 mmHg 33%
    02:00 +12°C° 0 mm 1 mps 602 mmHg 34%
    03:00 +12°C° 0 mm 1 mps 602 mmHg 36%
    04:00 +11°C° 0 mm 1 mps 602 mmHg 37%
    05:00 +11°C° 0 mm 1 mps 602 mmHg 38%
    06:00 +13°C° 0 mm 2 mps 603 mmHg 33%
    07:00 +15°C° 0 mm 2 mps 604 mmHg 28%
    08:00 +17°C° 0 mm 3 mps 606 mmHg 22%
    09:00 +20°C° 0 mm 5 mps 606 mmHg 19%
    10:00 +22°C° 0 mm 7 mps 607 mmHg 16%
    11:00 +26°C° 0 mm 9 mps 607 mmHg 13%
    12:00 +26°C° 0 mm 9 mps 607 mmHg 13%
    13:00 +27°C° 0 mm 9 mps 606 mmHg 13%
    14:00 +28°C° 0 mm 9 mps 606 mmHg 13%
    15:00 +27°C° 0 mm 9 mps 606 mmHg 15%
    16:00 +26°C° 0 mm 8 mps 606 mmHg 16%
    17:00 +24°C° 0 mm 8 mps 606 mmHg 18%
    18:00 +21°C° 0 mm 6 mps 605 mmHg 23%
    19:00 +19°C° 0 mm 4 mps 605 mmHg 29%
    20:00 +17°C° 0 mm 3 mps 605 mmHg 34%
    21:00 +16°C° 0 mm 2 mps 605 mmHg 37%
    22:00 +15°C° 0 mm 2 mps 605 mmHg 40%
    23:00 +14°C° 0 mm 1 mps 605 mmHg 43%
    Show more